Weather History for Vero Beach, FL

Change the Weather History Date:

Thursday, October 25, 2012

  Actual Average Record
Temperature  
Mean Temperature 75 °F 75 °F  
Max Temperature 81 °F 83 °F 92 °F (1997)
Min Temperature 69 °F 67 °F 48 °F (2005)
Degree Days  
Heating Degree Days 0 0  
Month to date heating degree days 0 0  
Since 1 July heating degree days 0 0  
Cooling Degree Days 10 10  
Month to date cooling degree days 343 306  
Year to date cooling degree days 3328 3073  
Growing Degree Days 26 (Base 50)    
Moisture  
Dew Point 71 °F    
Average Humidity 83    
Maximum Humidity 94    
Minimum Humidity 71    
Precipitation  
Precipitation 0.44 in 0.12 in 4.26 in (1964)
Month to date precipitation 3.85 4.23  
Year to date precipitation 44.69 45.72  
Sea Level Pressure  
Sea Level Pressure 29.82 in    
Wind  
Wind Speed 14 mph (ENE)    
Max Wind Speed 28 mph    
Max Gust Speed 35 mph    
Visibility 9 miles    
Events Rain , Thunderstorm    
T = Trace of Precipitation, MM = Missing Value Source: NWS Daily Summary

Daily Weather History Graph

Daily Weather History Graph

Search for Another Location

Airport:

Trip Planner

Search our weather history database for the weather conditions in past years. The results will help you decide how hot, cold, wet, or windy it might be!

Date:

Astronomy

Oct. 25, 2012 Rise Set
Actual Time 7:28 AM EDT 6:42 PM EDT
Civil Twilight 7:04 AM EDT 7:06 PM EDT
Nautical Twilight 6:36 AM EDT 7:34 PM EDT
Astronomical Twilight 6:09 AM EDT 8:01 PM EDT
Moon 4:12 PM EDT (10/25) 3:42 AM EDT (10/25)
Length of Visible Light 12h 02m
Length of Day
11h 14m
Waxing Gibbous, 84% of the Moon is Illuminated
Oct 25
Waxing Gibbous
Oct 29
Full
Nov 6
Last Quarter
Nov 13
New
Nov 20
First Quarter

Hourly Weather History & Observations

Time (EDT) Temp. Heat Index Dew Point Humidity Pressure Visibility Wind Dir Wind Speed Gust Speed Precip Events Conditions
12:07 AM 75.2 °F - 71.6 °F 89% 29.90 in 10.0 mi NE 15.0 mph 21.9 mph N/A   Mostly Cloudy
12:15 AM 75.2 °F - 71.6 °F 89% 29.90 in 10.0 mi NE 12.7 mph - N/A   Scattered Clouds
12:53 AM 77.0 °F - 71.1 °F 82% 29.89 in 10.0 mi East 13.8 mph - N/A   Mostly Cloudy
1:53 AM 75.0 °F - 72.0 °F 90% 29.89 in 10.0 mi ENE 20.7 mph 27.6 mph 0.02 in Thunderstorm Overcast
2:10 AM 73.4 °F - 71.6 °F 94% 29.88 in 1.8 mi East 18.4 mph 31.1 mph 0.07 in Rain Heavy Rain
2:20 AM 73.4 °F - 71.6 °F 94% 29.87 in 3.0 mi East 9.2 mph 21.9 mph 0.22 in Rain Light Rain
2:53 AM 75.9 °F - 72.0 °F 87% 29.86 in 10.0 mi East 10.4 mph - 0.23 in   Mostly Cloudy
3:53 AM 73.9 °F - 71.1 °F 91% 29.85 in 8.0 mi East 15.0 mph 20.7 mph 0.00 in   Overcast
4:53 AM 75.0 °F - 72.0 °F 90% 29.83 in 10.0 mi ENE 5.8 mph - 0.01 in Rain Light Rain
5:53 AM 78.1 °F - 71.1 °F 79% 29.83 in 10.0 mi ENE 12.7 mph - N/A   Mostly Cloudy
6:53 AM 78.1 °F - 71.1 °F 79% 29.84 in 10.0 mi ENE 13.8 mph 20.7 mph N/A   Overcast
7:53 AM 78.1 °F - 70.0 °F 76% 29.85 in 10.0 mi ENE 13.8 mph - N/A   Overcast
8:53 AM 79.0 °F - 71.1 °F 77% 29.86 in 10.0 mi ENE 16.1 mph - N/A   Mostly Cloudy
9:42 AM 75.2 °F - 71.6 °F 89% 29.87 in 4.0 mi NE 10.4 mph - 0.08 in Rain Rain
9:53 AM 75.9 °F - 73.0 °F 91% 29.87 in 10.0 mi NE 12.7 mph - 0.09 in   Overcast
10:53 AM 75.9 °F - 70.0 °F 82% 29.88 in 10.0 mi ENE 10.4 mph - N/A   Overcast
11:53 AM 77.0 °F - 73.0 °F 88% 29.86 in 8.0 mi North 5.8 mph - 0.01 in   Overcast
12:53 PM 80.1 °F 83.8 °F 72.0 °F 76% 29.83 in 10.0 mi NE 16.1 mph - N/A   Overcast
12:55 PM 80.6 °F 84.6 °F 71.6 °F 74% 29.83 in 10.0 mi NE 15.0 mph - N/A   Overcast
1:53 PM 79.0 °F - 73.0 °F 82% 29.80 in 10.0 mi ENE 13.8 mph - 0.01 in   Overcast
2:24 PM 80.6 °F 85.4 °F 73.4 °F 79% 29.79 in 10.0 mi NE 11.5 mph - N/A   Overcast
2:53 PM 78.1 °F - 70.0 °F 76% 29.78 in 10.0 mi ENE 15.0 mph 23.0 mph N/A   Mostly Cloudy
3:35 PM 78.8 °F - 71.6 °F 78% 29.78 in 10.0 mi ENE 13.8 mph - 0.00 in   Mostly Cloudy
4:53 PM 79.0 °F - 71.1 °F 77% 29.77 in 10.0 mi ENE 13.8 mph 25.3 mph N/A   Scattered Clouds
5:01 PM 78.8 °F - 71.6 °F 78% 29.77 in 10.0 mi ENE 13.8 mph - N/A   Mostly Cloudy
5:08 PM 78.8 °F - 69.8 °F 74% 29.77 in 10.0 mi ENE 17.3 mph 21.9 mph N/A   Scattered Clouds
5:19 PM 78.8 °F - 69.8 °F 74% 29.77 in 10.0 mi ENE 13.8 mph - N/A   Mostly Cloudy
5:53 PM 77.0 °F - 71.1 °F 82% 29.77 in 10.0 mi ENE 13.8 mph 21.9 mph 0.00 in   Scattered Clouds
6:53 PM 75.0 °F - 70.0 °F 84% 29.79 in 10.0 mi ENE 12.7 mph 20.7 mph N/A   Scattered Clouds
7:29 PM 77.0 °F - 71.6 °F 83% 29.77 in 10.0 mi NE 13.8 mph - N/A   Mostly Cloudy
7:36 PM 77.0 °F - 71.6 °F 83% 29.78 in 10.0 mi NE 13.8 mph - N/A   Mostly Cloudy
7:53 PM 78.1 °F - 71.1 °F 79% 29.77 in 10.0 mi NE 16.1 mph 25.3 mph N/A   Overcast
8:53 PM 79.0 °F - 70.0 °F 74% 29.77 in 10.0 mi NE 15.0 mph 28.8 mph N/A   Mostly Cloudy
9:53 PM 79.0 °F - 69.1 °F 72% 29.76 in 10.0 mi NE 20.7 mph 28.8 mph N/A   Scattered Clouds
10:53 PM 79.0 °F - 70.0 °F 74% 29.77 in 10.0 mi NE 19.6 mph 29.9 mph N/A   Mostly Cloudy
11:53 PM 79.0 °F - 68.0 °F 69% 29.74 in 10.0 mi NE 18.4 mph 25.3 mph N/A   Partly Cloudy